sat.trackr.live / text

‹ back to catalog

RTU MIREA 1 (RS51S)

NORAD 61785 · 2024-199BC

PAYLOAD ACTIVE UNKNOWN

§ Identity

Operator
Country
CIS
Launch date
2024-11-04
Launch site
VOSTO
Launch vehicle
Mass (kg)
RCS (m²)

Purposes: comms

External: N2YO · Heavens-Above · Gunter

§ Orbital elements

Epoch: 2026-05-25T04:20:36.144960Z

Period
92.41 min
Inclination
97.2978°
Eccentricity
0.0008376
Mean motion
15.58357162 rev/d
Perigee alt
386.7 km
Apogee alt
398.1 km
Semi-major
6,770.5 km
B*
6.9809e-4
RAAN
21.2816°
Arg perigee
19.6156°
Mean anomaly
340.5420°
Rev number
13,088

§ Raw data

RTU MIREA 1 (RS51S)1 61785U 24199BC  26145.18097390  .00053231  00000+0  69809-3 0  99952 61785  97.2978  21.2816 0008376  19.6156 340.5420 15.58357162130884

JSON: /api/v1/satellites/61785 · /tle

For live sub-satellite position, see the globe view (requires WebGL).

§ Visibility from observer

Set your observer location to see the next 7 days of passes ≥ 10°. The values pass through the URL so the page stays shareable.

No JS? Fill the form by hand. The geolocation button needs JavaScript.

§ Radio — SatNOGS DB

ModeDescriptionDownlinkUplink
CW Mode U - CW Beacon 436.200 MHz
GFSK Mode U - GFSK9k6 - AX.25 Beacon and Telemetry (Geoscan framing) 436.200 MHz
QPSK Mode X - DVB-S2 10.473 GHz
SSTV Mode U - SSTV (inactive) 436.200 MHz

4 transmitters · refreshed weekly from db.satnogs.org